Other Public Products
Issued by NWS Grand Forks, ND

Home | Current Version | Previous Version | Graphics & Text | Print | Product List | Glossary On
Versions: 1 2 3 4 5 6 7 8 9 10 11 12 13 14 15 16 17 18 19 20 21 22 23 24 25 26 27 28 29 30 31 32 33 34 35 36 37 38 39 40 41 42 43 44 45 46 47 48 49 50
000
FPUS83 KFGF 261510
OPUFGF
PRAIRIE TO PINES WEATHER ROUNDUP
NATIONAL WEATHER SERVICE EASTERN NORTH DAKOTA/GRAND FORKS ND
1000 AM CDT SUN APR 26 2015

 **SATELLITE DATA USED TO AUGMENT SKY COVER AT AUTOMATED STATIONS**
 *****  WEATHER ACROSS EASTERN NORTH DAKOTA  *****

CITY           SKY/WX    TMP DP  RH WIND       PRES   REMARKS
GRAND FORKS    MOSUNNY   53  21  28 SW9       30.12S
GRAND FORKS AF MOSUNNY   53  23  30 S13       30.12R
GRAND CITY NWS   N/A     52 N/A N/A SW12        N/A
BUXTON         NOT AVBL
DEVILS LAKE    CLOUDY    52  37  58 S10       30.07S
FARGO          SUNNY     53   9  17 S6        30.11R
WAHPETON ARPT  SUNNY     48  21  34 SE9       30.12R
$$

 *****  WEATHER ACROSS CENTRAL AND WESTERN NORTH DAKOTA  *****

CITY           SKY/WX    TMP DP  RH WIND       PRES   REMARKS
JAMESTOWN      PTSUNNY   54  38  54 S6        30.07R
BISMARCK       CLOUDY    48  46  93 E5        30.05R FOG
MINOT          CLOUDY    47  43  86 W9        30.04R
MINOT AFB      CLOUDY    44  44 100 NW9       30.04R
GARRISON         N/A     44  42  93 NW14      30.04R
WILLISTON      CLOUDY    42  35  76 NW12      30.08R
DICKINSON      CLOUDY    43  39  86 N9        30.02R
HETTINGER      LGT RAIN  43  41  93 N10       30.02R FOG
$$

 *****  OTHER OBSERVATIONS NORTHEAST NORTH DAKOTA  *****

CITY           SKY/WX    TMP DP  RH WIND       PRES   REMARKS
WALHALLA       FAIR      54  37  54 SE8       30.11R
LANGDON        CLOUDY    52  37  58 S15       30.09S
CAVALIER       FAIR      52  32  46 S14       30.11R
GRAFTON        FAIR      52  30  43 S15       30.12S
CANDO          CLOUDY    48  41  76 SE9       30.07S
FORT TOTTEN      N/A     50  39  65 S8        29.95S
ROLLA          PTSUNNY   45  45 100 S12G17    30.06S FOG
RUGBY          NOT AVBL
 ***** THE ABOVE OBSERVATIONS ARE NON NWS ARE NOT QUALITY
        CONTROLLED AND MAY MIS-REPORT RAIN FOR SNOW...
$$

 *****  OTHER OBSERVATIONS SOUTHEAST NORTH DAKOTA *****

CITY           SKY/WX    TMP DP  RH WIND       PRES   REMARKS
COOPERSTOWN    NOT AVBL
VALLEY CITY    FAIR      50  34  53 SE7       30.10R
OAKES            N/A     54  37  54 SE6       30.09R
GWINNER        SUNNY     52  34  50 SE9       30.11R
SHEYENNE NWR     N/A     51  21  31 SE7       29.95S
BUFFALO        NOT AVBL
WYNDMERE       NOT AVBL
 ***** THE ABOVE OBSERVATIONS ARE NON NWS ARE NOT QUALITY
       CONTROLLED AND MAY MIS-REPORT RAIN FOR SNOW...
$$

  *****  WEATHER ACROSS NORTHERN MINNESOTA  *****

CITY           SKY/WX    TMP DP  RH WIND       PRES   REMARKS
FLAG ISLAND    SUNNY     43  27  52 S5        30.16S
WARROAD        SUNNY     46  30  53 NE3       30.16S
ROSEAU         SUNNY     54  23  30 SW5       30.14S
HALLOCK        SUNNY     54  16  22 S16       30.12S
THF RVR FALLS  SUNNY     52  18  25 S9        30.15R
HALSTAD        NOT AVBL
FOSSTON        SUNNY     54  21  28 CALM      30.13S
BAUDETTE       SUNNY     50  18  28 S7        30.16S
WASKISH        SUNNY     52  21  30 CALM      30.16S
CROOKSTON      SUNNY     54  12  19 S9        30.14R
$$
  *****  WEATHER ACROSS CENTRAL AND WEST MINNESOTA  *****

CITY           SKY/WX    TMP DP  RH WIND       PRES   REMARKS
BEMIDJI        SUNNY     49  18  28 SE6       30.15R
PARK RAPIDS    SUNNY     49  13  23 SE8       30.13S
WADENA         SUNNY     46  21  36 E5        30.13S
DETROIT LAKES  SUNNY     48  14  25 SE10      30.14R
MOORHEAD       SUNNY     54   7  15 S9        30.12S
FERGUS FALLS   SUNNY     52   1  12 SE9       30.13R
ELBOW LAKE     FAIR      48  24  38 E7        30.11S
MORRIS MN      SUNNY     50  28  43 E10       30.10S
STAPLES        SUNNY     46  18  31 E3        30.13F
WHEATON        SUNNY     45  27  49 SE7       30.13S
$$
  *****  WEATHER ELSEWHERE ACROSS MINNESOTA  *****

CITY           SKY/WX    TMP DP  RH WIND       PRES   REMARKS
DULUTH         SUNNY     46  16  30 E10       30.15R
INTRNTL FALLS  SUNNY     47  18  31 VRB5      30.18S
ELY            SUNNY     45  19  36 N3        30.16S
CLOQUET        SUNNY     46  14  27 E9        30.15S
BRAINERD       SUNNY     46  17  31 VRB6      30.15S
HIBBING        SUNNY     48  16  27 CALM      30.16S
ALEXANDRIA     SUNNY     47  22  37 E9        30.13S
SAINT CLOUD    SUNNY     46  25  43 NE7       30.13R
MINNEAPOLIS    SUNNY     48  24  39 CALM      30.12R
$$

  *****  WEATHER ACROSS SOUTH DAKOTA  *****

CITY           SKY/WX    TMP DP  RH WIND       PRES   REMARKS
SIOUX FALLS    MOSUNNY   52  40  63 E7        30.08R
BROOKINGS      SUNNY     52  39  62 E8        30.08S
WATERTOWN      SUNNY     53  38  56 S3        30.07R
HURON          SUNNY     54  38  54 SE9       30.07R
SISSETON         N/A     48  33  56 VRB6      30.10R
ABERDEEN       MOSUNNY   57  38  48 S12       30.08R
MITCHELL       SUNNY     53  41  63 SE14      30.07R
PIERRE         PTSUNNY   53  43  68 E14       30.01R
MOBRIDGE       CLOUDY    53  42  66 SE10      30.01R
RAPID CITY     LGT RAIN  43  42  97 N14       29.96R FOG
$$

  *****  SOME WEATHER IN NEARBY STATES *****

CITY           SKY/WX    TMP DP  RH WIND       PRES   REMARKS
GLASGOW MT     CLOUDY    38  31  76 W9        30.10R
GREAT FALLS MT CLOUDY    32  25  75 N12       30.13R WCI  23
CHEYENNE WY    LGT RAIN  41  39  93 SE14      29.86R FOG
SCOTTSBLUFF NE RAIN      46  32  58 SE16      29.90R
OMAHA NE       PTSUNNY   50  39  66 E9        30.05R
DES MOINES IA  MOSUNNY   52  31  44 E9        30.05R
DAVENPORT IA   SUNNY     48  30  49 E13       30.05R
CHICAGO IL     SUNNY     48  28  46 NE9       30.02R
EAU CLAIRE WI  SUNNY     46  22  38 E5        30.12R
LA CROSSE WI   SUNNY     49  26  41 VRB3      30.11R
$$

  *****  SOME NATIONAL WEATHER *****

CITY           SKY/WX    TMP DP  RH WIND       PRES   REMARKS
LA GUARDIA NY  MOSUNNY   53  30  41 NE9       29.71S
RALEIGH NC     CLOUDY    48  45  89 NE8       29.70R
ATLANTA GA     MOSUNNY   73  63  70 W9        29.71R
NEW ORLEANS LA CLOUDY    74  71  91 SW6       29.80R FOG
OKLAHOMA CITY  PTSUNNY   62  54  74 NE17      29.77S
ALBUQUERQUE NM CLOUDY    44  38  79 N8        29.79F
SALT LAKE CITY LGT RAIN  40  36  86 N8        29.93R
LOS ANGELES CA MOSUNNY   57  50  77 SE8       29.99R
BOISE ID       SUNNY     41  27  57 NW14      30.07R
SEATTLE WA     CLOUDY    43  36  76 SE7       30.18R
$$

*** WEATHER ACROSS MANITOBA...SASKATCHEWAN AND ONTARIO ***
                ***ONTARIO***

CITY           SKY/WX    TMP DP  RH WIND       PRES   REMARKS
GERALDTON      MOSUNNY   41  28  60 NW9G17    30.15S
THUNDER BAY    SUNNY     46  27  46 E8        30.18S
SIOUX LOOKOUT  MOSUNNY   45  21  39 SE5       30.21S
TORONTO        MOSUNNY   50  34  53 N10G17    29.85F
BIG TROUT LK   SUNNY     32  25  74 CALM      30.31S
PICKLE LAKE    MOSUNNY   39  27  60 VRB3      30.23S
DRYDEN         SUNNY     46  16  29 NE5       30.20R
KENORA         MOSUNNY   50  23  34 E3        30.18S
$$
                *** MANITOBA***

CITY           SKY/WX    TMP DP  RH WIND       PRES   REMARKS
BRANDON        LGT RAIN  48  45  87 S12       30.04S FOG
DAUPHIN        CLOUDY    46  41  81 E5        30.01R
ISLAND LAKE    PTSUNNY   41  23  48 SE13      30.23S
PILOT MOUND      N/A     50  43  76 S15         N/A
THE PAS        CLOUDY    36  32  87 E7        30.03F
THOMPSON       CLOUDY    36  28  75 NE9       30.22F
WINNIPEG       PTSUNNY   54  32  43 S10       30.13R
LYNN LAKE      FLURRIES  32  23  69 E9        30.25S WCI  24
CHURCHILL      MOSUNNY   28  21  74 VRB2      30.39R
GILLAM         MOSUNNY   41  27  56 NE3       30.29F
$$
                ***SASKATCHEWAN***

CITY           SKY/WX    TMP DP  RH WIND       PRES   REMARKS
ESTEVAN        CLOUDY    37  36  93 W10G17    30.06R
KINDERSLEY     CLOUDY    32  27  80 NW9       30.10R WCI  24
LLOYDMINSTER   MOSUNNY   37  12  35 N12       30.10S
PRINCE ALBERT  LGT SNOW  34  32  93 N9        29.98R FOG
REGINA         CLOUDY    36  32  87 W23       30.04R



USA.gov is the U.S. government's official web portal to all federal, state and local government web resources and services.